SCP
0 0 0 0 0 0 0 0 0 0 0 0 0 0 0 0 0 0 0 0 0 0 0 0 0 0 0 0 0 0 0 0 0 0 0 0 0 0 0 0 0 0 0 0
0 0 0 0 0 0 0 0 0 0 0 0 0 0 0 0 0 0 0 0 0 0 0 0 0 0 0 0 0 0 0 0 0 0 0 0 0 0 0 0 0 0 0 -0
0 0 0 0 0 0 0 0 0 0 0 0 0 0 0 0 0 0 0 0 0 0 0 0 0 0 0 0 0 0 0 0 0 0 0 0 0 0 0 0 0 0 0 0
0 0 0 0 0 0 0 0 0 0 0 0 0 0 0 0 0 0 0 0 0 0 0 0 0 0 0 0 0 0 0 0 0 0 0 0 0 0 0 0 0 0 0 0
0 0 0 0 0 0 0 0 0 0 0 0 0 0 0 0 0 0 0 0 0 0 0 0 0 0 0 0 0 0 0 0 0 0 0 0 0 0 0 0 0 0 0 0
0 0 0 0 0 0 0 0 0 0 0 0 0 0 0 0 0 0 0 0 0 0 0 0 0 0 0 0 0 0 0 0 0 0 -0 -0 0 0 0 0 0 0 0 0
0 0 0 0 0 0 0 0 0 0 0 0 0 0 0 0 0 0 0 0 0 0 0 0 0 0 0 0 0 0 0 0 0 0 0 0 0 0 0 0 0 0 0 0
0 0 0 0 0 0 0 0 0 0 0 0 0 0 0 0 0 0 0 0 0 0 0 0 0 0 0 0 0 0 -0 -0 0 0 0 0 0 0 0 0 0 0 0 0
0 0 0 0 0 0 0 0 0 0 0 0 0 0 0 0 0 0 0 0 0 0 0 0 0 0 0 0 0 0 -0 -0 0 0 0 0 -0 -0 0 0 0 0 0 0
0 0 0 0 0 0 0 0 0 0 0 0 0 0 0 0 0 0 0 0 0 0 0 0 0 0 0 0 0 0 0 -0 -0 0 0 0 -0 -0 0 0 0 0 0 0
0 0 0 0 0 0 0 0 0 0 0 0 0 0 0 0 0 0 0 0 0 0 0 0 0 0 0 0 0 0 0 -0 -0 0 0 0 0 0 0 0 0 0 0 0
0 0 0 0 0 0 0 0 0 0 0 0 0 0 0 0 0 0 0 0 0 0 0 0 0 0 0 0 0 0 -0 -0 -0 0 0 0 0 0 0 0 0 0 0 0
0 0 0 0 0 0 0 0 0 0 0 0 0 0 0 0 0 0 0 0 0 0 0 0 0 0 0 0 0 0 -0 -0 -0 0 0 0 0 0 0 0 0 0 0 0
0 0 0 0 0 0 0 0 0 0 0 0 0 0 0 0 0 0 0 0 0 0 -0 0 0 0 0 0 0 0 -0 -0 -0 0 0 0 0 0 0 0 0 0 0 0
0 0 0 0 0 0 0 0 0 0 0 0 0 0 0 0 0 0 0 0 0 -0 0 0 0 0 0 0 0 0 -0 0 0 0 0 0 0 0 0 0 0 0 0 0
0 0 0 0 0 0 0 0 0 0 0 0 0 0 0 0 0 0 0 0 0 0 0 0 0 0 0 0 0 -0 0 0 0 0 0 0 0 0 0 0 0 0 0 0
0 0 0 0 0 0 0 0 0 0 0 0 0 0 0 0 0 0 0 0 0 0 0 0 0 0 0 0 0 0 0 0 0 0 0 0 0 0 0 0 0 0 0 0
0 0 0 0 0 0 0 0 0 0 0 0 0 0 0 0 0 0 0 0 0 0 0 0 0 0 0 0 0 0 0 0 0 0 0 0 0 0 0 0 0 0 0 0
0 0 0 0 0 0 0 0 0 0 0 0 0 0 0 0 0 0 0 0 0 0 0 0 0 0 0 0 0 0 0 0 0 0 0 0 0 0 -0 -0 -0 0 0 0
0 0 0 0 0 0 0 0 0 0 0 0 0 0 0 0 0 0 0 0 0 0 0 0 0 0 0 0 0 0 0 0 0 0 0 0 0 0 -0 -0 0 0 0 0
0 0 0 0 0 0 0 0 0 0 0 0 0 0 0 0 0 0 0 0 0 0 0 0 0 0 0 0 0 0 0 0 0 0 0 0 0 0 0 0 0 0 0 0
0 0 0 0 0 0 0 0 0 0 0 0 0 0 0 0 0 0 0 0 0 0 0 0 0 0 0 0 0 0 0 0 0 0 0 0 0 0 0 0 0 0 0 0
0 0 0 0 0 0 0 0 0 0 0 0 0 0 0 0 0 0 0 0 0 0 0 0 0 0 0 0 0 0 0 0 0 0 0 0 0 0 0 0 0 0 0 0
0 0 0 0 0 0 0 0 0 0 0 0 0 0 0 0 0 0 0 0 0 0 0 0 0 0 0 0 0 0 0 0 0 0 0 0 0 0 0 0 0 0 0 0
0 0 0 0 0 0 0 0 0 0 0 0 0 0 0 0 0 0 0 0 0 0 0 0 0 0 0 0 0 0 0 0 0 0 0 0 0 0 0 0 0 0 0 0
0 0 0 0 0 0 0 0 0 0 0 0 0 0 0 0 0 0 0 0 0 0 0 0 0 0 0 0 0 0 0 0 0 0 0 0 0 0 0 0 0 0 0 0
0 0 0 0 0 0 0 0 0 0 0 0 0 0 0 0 0 0 0 0 0 0 0 0 0 0 0 0 0 0 0 0 0 0 0 0 0 0 0 0 0 0 0 0
Wind_Speed
5 4 3 5 7 8 9 9 9 9 9 10 6 5 4 3 3 2 2 2 3 4 3 3 3 3 3 3 3 3 3 3 4 4 3 3 3 3 3 3 4 3 3 3
3 4 5 6 9 10 11 9 10 9 11 7 4 1 2 2 3 3 3 3 3 3 3 3 4 4 4 4 3 3 4 4 3 3 3 4 4 4 4 4 3 3 4 4
3 2 1 8 10 12 8 7 8 12 11 3 2 3 4 4 3 4 4 3 3 4 4 4 5 5 5 4 3 3 4 4 3 4 4 4 4 4 4 4 4 4 4 4
2 1 9 8 3 7 7 6 6 5 3 3 4 4 3 3 4 4 4 3 3 3 3 3 3 3 3 3 3 3 4 4 3 4 4 4 4 4 5 4 4 4 5 5
3 4 8 6 3 3 5 4 3 5 3 2 1 1 2 2 3 4 4 3 3 3 3 2 3 3 3 3 3 3 4 4 4 4 5 5 5 5 4 3 4 4 4 5
4 5 8 5 2 1 4 3 2 2 2 1 1 0 4 2 1 2 1 2 2 2 1 2 2 3 3 3 4 5 5 5 5 4 5 6 6 5 4 4 4 4 5 5
6 6 8 5 2 2 3 5 2 1 2 1 2 4 3 2 2 2 1 2 1 1 2 3 2 3 4 4 6 6 5 4 4 4 5 5 5 4 4 4 4 4 5 5
5 6 8 1 2 3 4 1 1 1 2 2 3 3 3 2 2 2 2 2 1 1 2 3 2 3 4 6 6 4 4 4 5 4 4 4 4 4 4 4 4 4 4 5
6 6 2 2 3 3 2 1 2 2 2 2 2 3 3 3 3 3 3 3 2 2 3 3 3 3 5 6 4 4 4 4 4 4 4 4 4 4 3 3 4 4 4 5
3 5 3 2 1 0 1 2 2 2 2 2 2 3 3 3 3 3 3 3 2 2 3 4 4 4 5 5 4 4 4 5 4 4 4 4 3 4 4 4 4 4 5 5
4 4 2 2 2 2 1 1 1 2 1 2 3 3 3 4 4 3 3 3 3 3 4 6 5 5 5 4 4 4 4 4 4 4 4 4 4 4 5 5 6 6 5 5
5 4 3 4 2 2 2 2 3 2 2 2 3 4 3 4 4 4 4 3 3 4 5 6 5 5 5 4 4 4 4 4 4 4 3 4 4 4 6 7 9 11 10 8
5 4 4 3 2 2 2 3 3 2 3 3 3 3 3 4 4 3 4 4 5 5 6 6 5 6 5 4 4 5 5 5 4 4 4 4 4 4 4 5 7 9 10 11
3 2 2 3 3 3 2 3 2 2 3 3 3 3 3 4 4 4 5 6 5 5 5 5 6 6 5 4 4 5 5 5 5 4 4 4 4 4 4 4 4 4 6 10
3 3 4 3 2 3 2 2 2 3 3 3 3 3 4 4 5 6 6 5 5 5 5 5 6 7 5 4 5 5 4 4 4 4 4 4 4 4 4 5 5 5 4 5
2 1 1 2 2 3 2 2 3 4 4 4 4 5 5 5 6 6 6 4 4 6 6 6 7 6 5 4 4 4 4 7 6 4 4 4 4 4 4 5 5 5 5 4
2 2 2 3 3 3 3 3 4 4 4 5 5 6 5 5 5 6 6 5 5 7 6 6 7 6 5 5 4 4 4 5 7 5 4 4 4 5 5 5 5 5 5 5
3 4 4 4 4 4 4 3 3 4 4 5 5 5 5 5 6 7 7 6 5 6 6 6 6 6 5 5 4 4 4 4 4 4 4 4 4 4 4 5 5 6 5 5
2 2 3 3 3 3 4 4 4 4 5 5 5 5 6 6 6 6 6 5 5 7 6 5 7 6 5 6 5 4 4 4 4 4 4 6 6 4 4 5 5 5 5 4
3 3 3 3 3 3 4 5 5 5 5 5 5 5 6 6 6 6 5 6 6 6 6 6 6 5 5 6 6 4 4 5 5 4 4 4 4 4 4 5 5 5 5 5
4 4 3 4 4 4 4 5 5 6 6 5 5 6 7 7 6 5 5 6 6 5 6 8 5 4 4 5 6 4 4 4 5 4 4 4 4 4 4 5 5 5 5 4
4 4 4 4 4 5 5 4 5 6 6 5 5 5 6 6 6 5 5 5 6 8 5 4 4 6 7 7 4 4 4 4 4 4 4 4 4 4 4 4 4 4 4 4
5 4 5 5 5 5 5 5 5 5 5 6 6 5 6 5 4 4 6 4 4 7 5 4 7 10 10 5 3 4 4 4 4 4 4 4 4 4 4 5 4 4 4 4
5 5 5 4 3 4 5 6 5 4 5 5 5 5 5 4 4 4 4 7 9 9 5 7 10 10 8 3 3 3 4 4 4 4 4 4 4 4 4 4 4 4 4 4
5 5 4 4 4 4 5 5 5 4 4 4 5 5 4 3 4 5 4 5 8 8 5 6 9 9 5 3 3 4 4 4 4 4 4 4 4 4 4 4 4 4 4 3
4 4 4 4 4 4 4 3 3 4 4 4 4 3 3 3 4 4 4 4 6 7 5 4 4 5 4 3 4 4 4 4 4 4 4 4 4 4 4 4 4 4 3 3
4 3 3 3 3 3 3 3 4 4 4 4 5 5 4 4 4 4 4 4 4 4 4 4 3 3 4 4 4 4 3 3 3 3 3 3 3 3 3 4 3 3 3 3
Wind_Direction
235 232 201 220 226 210 207 206 210 230 233 252 251 243 234 220 203 190 195 194 192 197 205 204 200 199 197 198 196 185 179 194 213 217 212 208 209 213 215 217 222 222 225 234
254 232 229 245 238 226 226 223 231 248 259 256 252 241 244 217 196 203 214 216 208 202 205 209 207 206 202 204 200 183 191 211 219 218 218 216 217 216 216 222 226 225 232 235
243 250 284 251 225 215 214 211 206 230 242 240 244 235 223 210 203 215 226 224 218 213 214 218 214 206 205 205 192 187 201 213 215 217 223 227 223 218 221 225 226 231 238 238
213 164 232 242 218 200 206 229 220 225 233 218 225 231 226 205 198 219 227 229 229 224 228 229 219 212 205 197 192 199 211 221 220 219 228 230 225 227 229 225 224 231 239 241
189 225 267 283 256 185 192 246 241 227 244 270 276 45 311 240 200 211 221 224 227 223 223 227 224 211 194 203 202 208 220 227 227 221 226 227 229 235 233 227 234 237 239 239
191 211 237 246 268 207 127 255 262 208 226 246 99 180 262 273 263 241 240 229 232 235 222 228 234 193 187 212 213 224 228 230 230 224 227 228 230 235 234 229 237 240 246 242
213 229 256 258 274 108 172 238 241 196 195 179 197 219 247 275 287 274 270 263 248 236 242 244 229 190 208 221 229 233 232 230 229 227 231 232 233 234 231 234 240 243 250 253
192 217 247 238 115 173 213 217 189 193 196 194 217 243 262 269 272 285 295 291 273 257 270 267 230 202 228 239 241 234 225 227 232 233 238 237 228 235 229 224 237 248 254 263
199 219 243 184 192 207 162 187 229 230 233 210 226 249 261 269 265 269 266 266 261 250 268 272 245 216 233 249 243 228 226 232 237 241 243 233 223 228 235 227 232 245 246 257
239 261 266 270 241 215 201 221 238 234 243 225 242 258 271 272 269 269 272 271 266 263 268 270 260 242 237 245 233 223 232 238 236 235 244 241 228 221 223 225 231 241 244 251
243 261 289 278 232 235 251 243 279 282 246 230 235 256 260 270 271 268 270 272 261 255 259 263 262 259 256 242 223 227 236 240 239 236 234 241 239 230 229 229 226 233 239 239
238 235 221 253 255 236 236 252 255 261 273 260 234 248 259 266 267 261 262 264 265 263 263 266 262 259 256 242 223 222 239 241 237 236 235 235 243 260 247 243 251 252 251 253
238 243 225 243 259 247 241 247 249 247 254 267 268 257 260 266 268 265 265 263 260 262 265 269 269 266 257 244 234 228 235 241 239 235 234 235 236 241 264 269 256 255 257 261
247 231 256 260 261 269 266 267 265 273 268 262 266 270 265 268 272 269 266 264 262 266 271 270 269 269 264 247 240 240 241 242 240 236 234 234 234 236 240 251 267 272 264 263
257 226 229 248 270 279 278 270 282 283 284 285 278 275 272 271 274 274 274 275 276 274 273 271 269 272 269 250 245 246 244 243 239 238 236 233 232 234 239 243 252 265 273 271
264 267 239 244 260 273 281 271 261 271 277 279 282 279 274 271 276 282 284 280 275 274 272 270 268 270 266 253 251 253 248 251 252 246 239 236 231 232 238 242 246 250 255 258
241 254 255 266 273 273 267 259 256 266 276 279 280 282 285 286 286 284 283 277 267 266 266 265 269 273 263 249 244 249 249 252 255 253 242 237 235 236 238 239 243 248 252 252
233 236 236 240 252 268 281 283 276 275 274 277 286 290 287 280 277 280 283 287 286 284 275 266 267 270 262 252 246 245 244 246 245 245 246 243 242 238 237 239 244 250 257 256
276 263 269 267 260 256 265 274 277 277 279 283 284 280 276 273 273 278 283 285 282 284 283 275 281 275 262 258 259 245 244 248 251 251 247 252 254 243 239 241 246 248 251 250
309 300 294 289 279 260 265 274 279 282 280 277 277 280 282 280 279 279 279 271 260 261 272 280 278 267 261 258 260 245 242 244 248 251 249 246 246 246 243 244 246 247 247 245
299 296 291 287 286 281 273 274 277 280 282 275 269 273 278 283 282 277 277 282 280 272 273 282 279 269 264 264 263 249 244 245 247 248 249 250 249 248 246 245 246 248 248 247
290 288 286 285 286 289 288 282 276 278 282 281 277 275 280 286 287 281 262 261 277 290 291 273 272 278 285 282 261 250 248 248 249 249 249 249 248 249 249 245 245 247 245 244
284 281 281 281 279 283 291 288 279 275 276 279 279 277 275 276 276 279 288 283 280 291 293 275 284 291 296 290 264 259 257 254 253 252 251 250 250 250 250 248 247 247 246 244
281 281 280 281 285 289 290 288 286 280 275 278 277 274 275 284 286 267 266 289 298 299 291 289 298 300 303 290 272 265 261 259 258 256 255 254 252 250 250 250 251 249 246 244
277 277 279 285 286 280 278 288 296 292 289 286 284 283 276 265 273 287 290 287 295 303 300 300 305 306 302 283 277 274 269 263 263 262 255 255 253 251 250 248 247 249 247 244
276 275 272 269 270 278 285 289 289 292 297 300 300 295 291 286 281 284 288 289 291 302 304 298 297 299 293 285 280 279 277 279 279 272 266 264 260 256 256 254 251 250 248 245
285 280 283 288 285 280 281 281 284 290 292 293 297 299 299 300 299 299 299 300 303 303 301 299 297 295 293 290 289 287 283 281 279 276 273 270 269 264 258 252 251 248 243 241